User: anonymous   Login
Location: NJAA Observatory
(40.6819°N, 74.8979°W)
Time: 22:58:13
(UTC-05:00)
Language:

Iridium 56 - Orbit

View from above orbital plane
View from above orbital plane
View from above satellite
View from above satellite

Ground track
Ground track

The orbit data is extracted from the following two-line orbital elements,

1 25170U 98010B   17328.38412599  .00000188  00000-0  59873-4 0  9998
2 25170  86.3951 283.5114 0002237  88.6547 271.4905 14.34233119 34720
Epoch (UTC): 24 November 2017 09:13:08
Eccentricity: 0.0002237
inclination: 86.3951°
perigee height: 776 km
apogee height: 779 km
right ascension of ascending node: 283.5114°
argument of perigee: 88.6547°
revolutions per day: 14.34233119
mean anomaly at epoch: 271.4905°
orbit number at epoch: 3472

The dashed part of the orbit path shows where the satellite is in the earth's shadow,  

DLR